This demonstration page uses our WeatherBlox Daily Observations layout. Learn more.

Left ArrowRight Arrow

39.29038, -76.61219

Hourly Observations for May 30, 2020

Temp ( °F °C ) Dew Point ( °F °C ) Humidity (%) Winds ( mph kmh ) Pressure ( in mb ) Visibility ( mi km ) Precip ( " mm )
12:54 am 00:54 undefined 75 23.9 63 17.2 66 66 undefined N/A 29.90 1013 N/A 0.00 0.00
1:54 am 01:54 undefined 73 22.8 64 17.8 74 74 undefined N/A 29.90 1013 N/A 0.00 0.00
2:54 am 02:54 undefined 72 22.2 63 17.2 73 73 undefined N/A 29.90 1013 N/A 0.00 0.00
3:54 am 03:54 undefined 71 21.7 63 17.2 76 76 undefined N/A 29.91 1013 N/A 0.00 0.00
4:54 am 04:54 undefined 70 21.1 63 17.2 79 79 undefined N/A 29.92 1013 N/A 0.00 0.00
5:54 am 05:54 undefined 69 20.6 63 17.2 81 81 undefined N/A 29.94 1014 N/A 0.00 0.00
6:54 am 06:54 undefined 71 21.7 63 17.2 76 76 undefined N/A 29.95 1014 N/A 0.00 0.00
7:54 am 07:54 undefined 74 23.3 61 16.1 64 64 undefined N/A 29.98 1015 N/A 0.00 0.00
8:54 am 08:54 undefined 75 23.9 59 15 58 58 undefined N/A 29.99 1016 N/A 0.00 0.00
9:54 am 09:54 undefined 74 23.3 58 14.4 57 57 undefined N/A 29.98 1015 N/A 0.00 0.00
10:54 am 10:54 undefined 76 24.4 49 9.4 39 39 undefined N/A 29.98 1015 N/A 0.00 0.00
11:54 am 11:54 undefined 78 25.6 50 10 37 37 undefined N/A 29.98 1015 N/A 0.00 0.00
12:54 pm 12:54 undefined 80 26.7 48 8.9 33 33 undefined N/A 29.96 1015 N/A 0.00 0.00
1:54 pm 13:54 undefined 82 27.8 48 8.9 31 31 undefined N/A 29.94 1014 N/A 0.00 0.00
2:54 pm 14:54 undefined 82 27.8 47 8.3 29 29 undefined N/A 29.93 1013 N/A 0.00 0.00
3:54 pm 15:54 undefined 83 28.3 49 9.4 31 31 undefined N/A 29.93 1013 N/A 0.00 0.00
4:54 pm 16:54 undefined 82 27.8 49 9.4 32 32 undefined N/A 29.90 1012 N/A 0.00 0.00
5:54 pm 17:54 undefined 81 27.2 49 9.4 33 33 undefined N/A 29.89 1012 N/A 0.00 0.00
6:54 pm 18:54 undefined 80 26.7 49 9.4 34 34 undefined N/A 29.89 1012 N/A 0.00 0.00
7:54 pm 19:54 undefined 80 26.7 49 9.4 34 34 undefined N/A 29.91 1013 N/A 0.00 0.00
8:54 pm 20:54 undefined 79 26.1 51 10.6 38 38 undefined N/A 29.93 1014 N/A 0.00 0.00
9:54 pm 21:54 undefined 77 25 50 10 39 39 undefined N/A 29.96 1015 N/A 0.00 0.00
10:54 pm 22:54 undefined 75 23.9 50 10 41 41 undefined N/A 29.98 1015 N/A 0.00 0.00
11:54 pm 23:54 undefined 73 22.8 50 10 44 44 undefined N/A 29.98 1015 N/A 0.00 0.00

Powered by AerisWeather